Location: Clanezzo
(45.7500°N, 9.6000°E)
Time: 13:41:37
(UTC+00:00)

Cosmos 1703 Rocket - Pass Details

Date: 12 May 2021
Orbit: 606 x 633 km, 82.5° (Epoch: 19 June)

Event Time Altitude Azimuth Distance (km) Brightness Sun altitude
Exits shadow 22:28:52 43° 68° (ENE) 870 4.3 -24.9°
Drops below altitude 10° 22:32:30 10° 20° (NNE) 1,998 6.9 -25.1°
Sets 22:34:49 0° 15° (NNE) 2,914 8.0 -25.1°
